Weather History for Beach, ND

Change the Weather History Date:

Wednesday, February 13, 2013

  Actual Average (KGDV) Record (KGDV)
Temperature  
Mean Temperature 34 °F -  
Max Temperature 39 °F 31 °F 53 °F (2005)
Min Temperature 28 °F 13 °F -9 °F (2007)
Degree Days  
Heating Degree Days 32    
Moisture  
Dew Point 28 °F    
Average Humidity 79    
Maximum Humidity 100    
Minimum Humidity 69    
Precipitation  
Precipitation 0.02 in - - ()
Sea Level Pressure  
Sea Level Pressure 29.74 in    
Wind  
Wind Speed 17 mph (WNW)    
Max Wind Speed 26 mph    
Max Gust Speed 34 mph    
Visibility 10 miles    
Events Snow    
Averages and records for this station are not official NWS values.
T = Trace of Precipitation, MM = Missing Value Source: NWS Daily Summary

Daily Weather History Graph

Daily Weather History Graph

Search for Another Location

Airport:

Trip Planner

Search our weather history database for the weather conditions in past years. The results will help you decide how hot, cold, wet, or windy it might be!

Date:

Astronomy

Feb. 13, 2013 Rise Set
Actual Time 7:02 AM MST 5:17 PM MST
Civil Twilight 6:31 AM MST 5:49 PM MST
Nautical Twilight 5:55 AM MST 6:25 PM MST
Astronomical Twilight 5:20 AM MST 7:00 PM MST
Moon 8:15 AM MST (2/13) 9:43 PM MST (2/13)
Length of Visible Light 11h 17m
Length of Day
10h 14m
Waxing Crescent, 14% of the Moon is Illuminated
Feb 13
Waxing Crescent
Feb 17
First Quarter
Feb 25
Full
Mar 4
Last Quarter
Mar 11
New

Hourly Weather History & Observations

Time (MST) Temp. Windchill Dew Point Humidity Pressure Visibility Wind Dir Wind Speed Gust Speed Precip Events Conditions
12:15 AM 30.2 °F 21.3 °F 24.8 °F 80% 29.76 in 10.0 mi WSW 10.4 mph - N/A   Mostly Cloudy
12:35 AM 32.0 °F 23.6 °F 24.8 °F 75% 29.75 in 10.0 mi SW 10.4 mph - N/A   Partly Cloudy
12:55 AM 32.0 °F 23.0 °F 24.8 °F 75% 29.73 in 10.0 mi SW 11.5 mph - N/A   Clear
1:15 AM 32.0 °F 23.0 °F 26.6 °F 80% 29.72 in 10.0 mi SW 11.5 mph - N/A   Clear
1:35 AM 32.0 °F 21.6 °F 26.6 °F 80% 29.71 in 10.0 mi SW 15.0 mph - N/A   Scattered Clouds
1:55 AM 32.0 °F 23.0 °F 26.6 °F 80% 29.70 in 10.0 mi SW 11.5 mph - N/A   Overcast
2:15 AM 32.0 °F 22.1 °F 26.6 °F 80% 29.69 in 10.0 mi WSW 13.8 mph 19.6 mph N/A   Mostly Cloudy
2:35 AM 32.0 °F 20.8 °F 26.6 °F 80% 29.69 in 10.0 mi WSW 17.3 mph - N/A   Mostly Cloudy
2:55 AM 32.0 °F 20.8 °F 26.6 °F 80% 29.68 in 10.0 mi WSW 17.3 mph 21.9 mph N/A   Overcast
3:15 AM 32.0 °F 21.2 °F 26.6 °F 80% 29.67 in 10.0 mi WSW 16.1 mph 20.7 mph N/A   Overcast
3:35 AM 32.0 °F 21.6 °F 26.6 °F 80% 29.66 in 10.0 mi West 15.0 mph 23.0 mph N/A   Overcast
3:55 AM 32.0 °F 21.6 °F 26.6 °F 80% 29.66 in 10.0 mi West 15.0 mph - N/A   Overcast
4:15 AM 32.0 °F 20.8 °F 26.6 °F 80% 29.65 in 10.0 mi WSW 17.3 mph - N/A   Overcast
4:35 AM 32.0 °F 21.6 °F 26.6 °F 80% 29.65 in 10.0 mi West 15.0 mph - N/A   Overcast
4:55 AM 33.8 °F 22.8 °F 26.6 °F 75% 29.65 in 10.0 mi West 18.4 mph - N/A   Overcast
5:15 AM 32.0 °F 22.5 °F 26.6 °F 80% 29.64 in 10.0 mi WSW 12.7 mph - N/A   Overcast
5:35 AM 32.0 °F 21.6 °F 26.6 °F 80% 29.63 in 10.0 mi West 15.0 mph - N/A   Overcast
5:55 AM 33.8 °F 23.5 °F 26.6 °F 75% 29.63 in 10.0 mi West 16.1 mph - N/A   Overcast
6:15 AM 33.8 °F 22.8 °F 26.6 °F 75% 29.63 in 10.0 mi West 18.4 mph 21.9 mph N/A   Overcast
6:35 AM 35.6 °F 23.7 °F 28.4 °F 75% 29.63 in 10.0 mi West 24.2 mph 31.1 mph N/A   Overcast
6:55 AM 35.6 °F 24.2 °F 30.2 °F 81% 29.63 in 10.0 mi West 21.9 mph 27.6 mph N/A   Overcast
7:15 AM 35.6 °F 24.0 °F 32.0 °F 87% 29.64 in 7.0 mi WNW 23.0 mph 32.2 mph N/A   Mostly Cloudy
7:35 AM 32.0 °F 19.8 °F 32.0 °F 100% 29.65 in 4.0 mi WNW 20.7 mph 29.9 mph 0.02 in Snow Light Snow
7:55 AM 33.8 °F 22.2 °F 32.0 °F 93% 29.65 in 10.0 mi WNW 20.7 mph 25.3 mph 0.02 in   Mostly Cloudy
8:15 AM 33.8 °F 23.9 °F 32.0 °F 93% 29.65 in 10.0 mi West 15.0 mph - N/A   Mostly Cloudy
8:35 AM 35.6 °F 25.5 °F 32.0 °F 87% 29.65 in 10.0 mi West 17.3 mph 21.9 mph N/A   Overcast
8:55 AM 35.6 °F 23.7 °F 32.0 °F 87% 29.65 in 10.0 mi WNW 24.2 mph - N/A   Mostly Cloudy
9:15 AM 35.6 °F 24.2 °F 30.2 °F 81% 29.65 in 10.0 mi West 21.9 mph 27.6 mph N/A   Mostly Cloudy
9:35 AM 37.4 °F 26.1 °F 30.2 °F 75% 29.66 in 10.0 mi WNW 24.2 mph 29.9 mph N/A   Partly Cloudy
9:55 AM 37.4 °F 27.5 °F 32.0 °F 81% 29.67 in 10.0 mi WNW 18.4 mph 25.3 mph N/A   Clear
10:15 AM 37.4 °F 26.6 °F 30.2 °F 75% 29.67 in 10.0 mi WNW 21.9 mph 27.6 mph N/A   Clear
10:35 AM 37.4 °F 26.6 °F 30.2 °F 75% 29.68 in 10.0 mi WNW 21.9 mph 26.5 mph N/A   Clear
10:55 AM 37.4 °F 27.5 °F 30.2 °F 75% 29.68 in 10.0 mi WNW 18.4 mph 26.5 mph N/A   Partly Cloudy
11:15 AM 37.4 °F 26.4 °F 28.4 °F 70% 29.68 in 2.5 mi WNW 23.0 mph 28.8 mph N/A   Haze
11:35 AM 37.4 °F 26.9 °F 28.4 °F 70% 29.69 in 10.0 mi WNW 20.7 mph 25.3 mph N/A   Mostly Cloudy
11:55 AM 37.4 °F 26.6 °F 28.4 °F 70% 29.70 in 10.0 mi WNW 21.9 mph 31.1 mph N/A   Mostly Cloudy
12:15 PM 35.6 °F 25.5 °F 32.0 °F 87% 29.69 in 7.0 mi WNW 17.3 mph 29.9 mph N/A Snow Light Snow
12:35 PM 35.6 °F 25.5 °F 32.0 °F 87% 29.69 in 10.0 mi West 17.3 mph 23.0 mph N/A   Mostly Cloudy
12:55 PM 37.4 °F 27.2 °F 32.0 °F 81% 29.70 in 10.0 mi WNW 19.6 mph 24.2 mph N/A   Mostly Cloudy
1:15 PM 39.2 °F 28.5 °F 30.2 °F 70% 29.71 in 10.0 mi WNW 24.2 mph 32.2 mph N/A   Scattered Clouds
1:35 PM 37.4 °F 26.9 °F 30.2 °F 75% 29.72 in 10.0 mi WNW 20.7 mph 28.8 mph N/A   Mostly Cloudy
1:55 PM 37.4 °F 29.3 °F 32.0 °F 81% 29.72 in 10.0 mi NW 12.7 mph 18.4 mph N/A   Overcast
2:15 PM 37.4 °F 28.5 °F 30.2 °F 75% 29.72 in 10.0 mi WNW 15.0 mph 20.7 mph N/A   Overcast
2:35 PM 37.4 °F 26.9 °F 30.2 °F 75% 29.73 in 10.0 mi NW 20.7 mph 26.5 mph N/A   Overcast
2:55 PM 37.4 °F 27.2 °F 28.4 °F 70% 29.74 in 10.0 mi NW 19.6 mph 27.6 mph N/A   Mostly Cloudy
3:15 PM 37.4 °F 28.9 °F 30.2 °F 75% 29.75 in 10.0 mi WNW 13.8 mph - N/A   Overcast
3:35 PM 37.4 °F 27.2 °F 30.2 °F 75% 29.75 in 10.0 mi NW 19.6 mph 23.0 mph N/A   Overcast
3:55 PM 37.4 °F 26.9 °F 28.4 °F 70% 29.76 in 10.0 mi NW 20.7 mph 24.2 mph N/A   Overcast
4:15 PM 35.6 °F 24.8 °F 28.4 °F 75% 29.77 in 10.0 mi NW 19.6 mph 26.5 mph N/A   Overcast
4:35 PM 35.6 °F 24.5 °F 28.4 °F 75% 29.78 in 10.0 mi NW 20.7 mph 28.8 mph N/A   Overcast
4:55 PM 35.6 °F 25.5 °F 28.4 °F 75% 29.79 in 10.0 mi NW 17.3 mph 29.9 mph N/A   Overcast
5:15 PM 35.6 °F 24.8 °F 28.4 °F 75% 29.80 in 10.0 mi NW 19.6 mph 24.2 mph N/A   Overcast
5:35 PM 35.6 °F 25.2 °F 28.4 °F 75% 29.80 in 10.0 mi NW 18.4 mph 26.5 mph N/A   Overcast
5:55 PM 33.8 °F 22.5 °F 28.4 °F 81% 29.81 in 10.0 mi NW 19.6 mph 25.3 mph N/A   Overcast
6:15 PM 33.8 °F 21.9 °F 28.4 °F 81% 29.82 in 10.0 mi NW 21.9 mph 27.6 mph N/A   Overcast
6:35 PM 32.0 °F 20.5 °F 28.4 °F 87% 29.83 in 10.0 mi NW 18.4 mph 26.5 mph N/A   Mostly Cloudy
6:55 PM 32.0 °F 20.8 °F 28.4 °F 87% 29.83 in 10.0 mi WNW 17.3 mph 26.5 mph N/A   Mostly Cloudy
7:15 PM 32.0 °F 21.6 °F 28.4 °F 87% 29.83 in 10.0 mi WNW 15.0 mph - N/A   Partly Cloudy
7:35 PM 32.0 °F 21.2 °F 28.4 °F 87% 29.84 in 10.0 mi WNW 16.1 mph 21.9 mph N/A   Clear
7:55 PM 32.0 °F 19.5 °F 28.4 °F 87% 29.85 in 10.0 mi WNW 21.9 mph 26.5 mph N/A   Partly Cloudy
8:15 PM 32.0 °F 20.5 °F 26.6 °F 80% 29.84 in 10.0 mi WNW 18.4 mph 24.2 mph N/A   Clear
8:35 PM 32.0 °F 18.4 °F 26.6 °F 80% 29.85 in 10.0 mi WNW 26.5 mph 32.2 mph N/A   Partly Cloudy
8:55 PM 32.0 °F 18.6 °F 23.0 °F 69% 29.86 in 10.0 mi NW 25.3 mph 34.5 mph N/A   Mostly Cloudy
9:15 PM 30.2 °F 18.1 °F 23.0 °F 75% 29.86 in 10.0 mi NW 18.4 mph 26.5 mph N/A   Mostly Cloudy
9:35 PM 28.4 °F 17.0 °F 23.0 °F 80% 29.87 in 10.0 mi NW 15.0 mph 24.2 mph N/A   Mostly Cloudy
9:55 PM 28.4 °F 19.1 °F 23.0 °F 80% 29.87 in 10.0 mi WNW 10.4 mph - N/A   Overcast
10:15 PM 28.4 °F 15.8 °F 23.0 °F 80% 29.87 in 10.0 mi WNW 18.4 mph 23.0 mph N/A   Mostly Cloudy
10:35 PM 28.4 °F 13.8 °F 21.2 °F 74% 29.87 in 10.0 mi WNW 25.3 mph 33.4 mph N/A   Partly Cloudy
10:55 PM 28.4 °F 14.7 °F 21.2 °F 74% 29.87 in 10.0 mi WNW 21.9 mph 29.9 mph N/A   Mostly Cloudy
11:15 PM 28.4 °F 14.7 °F 21.2 °F 74% 29.87 in 10.0 mi WNW 21.9 mph 28.8 mph N/A   Overcast
11:35 PM 28.4 °F 14.7 °F 21.2 °F 74% 29.87 in 10.0 mi WNW 21.9 mph 32.2 mph N/A   Overcast
11:55 PM 28.4 °F 15.1 °F 21.2 °F 74% 29.88 in 10.0 mi WNW 20.7 mph 31.1 mph N/A   Overcast